Location: Rometta
(44.2000°N, 10.0500°E)
Time: 12:37:07
(UTC+00:00)

Cosmos 1606 Rocket - Pass Details

Date: 20 January 2021
Orbit: 604 x 631 km, 82.5° (Epoch: 07 March)

Event Time Altitude Azimuth Distance (km) Brightness Sun altitude
Rises 16:50:57 0° 354° (N) 2,890 6.8 -6.9°
Reaches altitude 10° 16:53:12 10° 358° (N) 1,985 6.0 -7.3°
Maximum altitude 16:57:33 61° 80° (E) 705 3.6 -8.1°
Drops below altitude 10° 17:01:54 10° 161° (SSE) 1,986 6.2 -8.8°
Sets 17:04:09 0° 164° (SSE) 2,892 7.0 -9.2°
